Simultaneous Nadir Overpasses (SNOs) Predictions

Prediction of SNOs between GOES-16 and METOP-C Satellite Orbit:

Table of predicted SNOs for the next 14.0 days since TLE Epoch: 2/18/2023
Index Date Time (GOES-16) GOES-16 Lat,Lon METOP-C Lat,Lon Distance(km) Time Diff (sec)
1 02/19/2023 14:38:07 0.03, -75.21 0.29, -76.50 146.89 80
2 02/20/2023 14:14:47 0.03, -75.21 -0.82, -71.50 423.08 80
3 02/22/2023 02:36:27 -0.04, -75.21 -0.25, -76.09 100.65 80
4 02/23/2023 02:13:08 -0.03, -75.23 0.87, -71.10 469.83 80
5 02/24/2023 14:34:39 0.04, -75.26 0.12, -75.66 45.42 80
6 02/27/2023 02:33:00 -0.03, -75.29 -0.04, -75.26 3.17 80
7 03/01/2023 14:28:32 0.03, -75.35 -0.10, -74.83 59.29 80
8 03/03/2023 02:50:12 -0.03, -75.37 -0.91, -79.43 462.30 80
